www.pogodaiklimat.ru
ПОГОДА в Эльмире
Время
и дата
17:22 25.01
17:49 25.01
17:53 25.01
18:33 25.01
18:51 25.01
18:53 25.01
19:07 25.01
19:40 25.01
19:53 25.01
20:53 25.01
21:49 25.01
21:53 25.01
22:53 25.01
23:53 25.01
00:08 26.01
00:34 26.01
00:53 26.01
01:53 26.01
02:26 26.01
02:53 26.01
03:53 26.01
04:53 26.01
05:53 26.01
06:53 26.01
07:53 26.01
08:53 26.01
09:53 26.01
10:53 26.01
11:53 26.01
12:53 26.01
13:53 26.01
14:53 26.01
15:53 26.01
16:53 26.01
17:53 26.01
18:19 26.01
18:31 26.01
18:53 26.01
19:53 26.01
20:53 26.01
21:03 26.01
21:10 26.01
21:33 26.01
21:53 26.01
22:53 26.01
23:53 26.01
00:53 27.01
01:53 27.01
Ветер
(напр.,м/с)
Видим. Явления Облачность Т
(С)
Тd
(С)
f
(%)
Тe
(С)
Тes
(С)
Комфортность P
(гПа)
Po
(гПа)
Тmin
(С)
Tmax
(С)
R
(мм)
R24
(мм)
S
(см)
В 2 6 км слабый снег, дымка 10/10 450 m
[Ns]
+1.1 -0.6 88 -2 -2 971.7
В 3 4 км слабый снег, дымка 10/10 390 m
[Ns]
+1.0 0.0 93 -4 -4 971.1
В 3 5 км слабый снег, дымка 10/10 390 m
[Ns]
+0.6 0.0 96 -4 -4 1006.4 971.1
В 3 10 км слабый дождь, дымка 10/10 360 m
[Ns]
+1.1 0.0 92 -3 -3 970.1
В 2 14 км слабый дождь 10/10 360 m
[Ns]
+1.0 0.0 93 -3 -3 969.4
В 2 16 км слабый дождь 10/10 300 m
[Ns]
+1.1 0.0 92 -2 -2 1004.8 969.4 -1.1 +1.1 3.8
В 3 16 км слабый дождь 10/10 390 m
[Ns]
+1.7 0.0 88 -3 -3 969.1
С 3 16 км слабый дождь 10/10 300 m
[Ns]
+1.7 +0.6 92 -3 -3 968.1
В 2 16 км 10/10 300 м +2.2 +0.6 89 -1 -1 1003.2 968.1
В 2 16 км 10/10 540 м +2.8 +1.1 89 0 0 1001.4 966.5
В 2 16 км 10/10 420 м +4.0 +2.0 87 +1 +1 965.5
СВ 2 16 км 10/10 480 м +3.3 +1.7 89 0 0 1000.4 965.5
штиль 0 16 км 10/10 450 м +2.2 +1.1 92 +1 +1 999.2 964.2
штиль 0 14 км 10/10 450 м +1.7 +1.1 96 0 0 998.5 963.6
штиль 0 16 км 10/10 420 м +1.1 +0.6 96 0 0 963.6
штиль 0 13 км 10/10 480 м +1.1 +0.6 96 0 0 962.9
штиль 0 11 км 10/10 480 м +0.6 +0.6 100 -1 -1 997.6 962.9 +0.6 +3.9
штиль 0 11 км 10/10 450 м +1.1 +0.6 96 0 0 997.4 962.6
С 2 14 км 10/10 750 м +1.1 +0.6 96 -3 -3 962.3
штиль 0 14 км 10/10 1080 м +0.6 +0.6 100 -1 -1 996.9 962.3
ЮЗ 7 16 км 8/8 1290 м +3.9 0.0 76 -2 -2 996.7 961.9
З 5
{10}
16 км 10/10 1140 м +3.9 -1.1 70 -1 -1 997.3 962.6
З 7
{13}
16 км 10/10 1170 м +2.8 -2.2 70 -3 -3 998.1 963.2
З 6
{13}
16 км 10/10 1140 м +2.8 -3.9 61 -3 -3 998.4 963.6 +0.6 +3.9 6.9
З 10
{15}
16 км 10/10 1080 м +2.8 -4.4 59 -4 -4 999.1 964.2
З 8
{12}
16 км 10/10 1290 м +2.2 -4.4 62 -4 -4 1000.3 965.5
З 9
{14}
16 км 10/10 1080 м +2.2 -4.4 62 -5 -5 1001.6 966.8
З 10
{14}
16 км 10/10 1260 м +2.2 -5.0 59 -5 -5 1002.3 967.5
З 7
{10}
16 км 10/10 1140 м +2.2 -4.4 62 -4 -4 1002.9 968.1
З 8
{11}
16 км 10/10 1080 м +2.2 -4.4 62 -4 -4 1003.2 968.1 +2.2 +2.8
З 5
{9}
16 км 10/10 1050 м +2.2 -4.4 62 -3 -3 1003.9 968.8
З 7
{12}
16 км 10/10 1020 м +1.7 -4.4 64 -4 -4 1005.3 970.1
З 6
{9}
16 км 10/10 1050 м +1.7 -5.0 61 -4 -4 1006.4 971.4
З 4
{10}
16 км 10/10 1110 м +1.7 -5.6 58 -3 -3 1007.3 972.4
З 4 16 км 10/10 1110 м +1.1 -5.6 61 -4 -4 1008.8 973.7
З 5 4 км слабый снег 10/10 720 m
[Ns]
0.0 -3.9 75 -6 -6 974.0
штиль 0 6 км слабый снег 10/8 930 m
[Ac Ns]
0.0 -3.3 78 -1 -1 974.0
штиль 0 16 км 10/2 780 m
[Ac]
-0.6 -2.8 85 -2 -2 1009.7 974.4 -0.6 +2.2
С 2 16 км 10/8 870 m
[Ac]
-0.6 -3.9 78 -4 -4 1010.6 975.3
СЗ 2 8 км слабый снег, дымка 10/10 990 m
[Ns]
-1.1 -3.3 85 -5 -5 1011.2 975.7
штиль 0 4 км слабый снег, дымка 10/10 840 m
[Ns]
-1.1 -2.8 88 -2 -2 976.0
З 2 6 км слабый снег, дымка 10/10 780 m
[Ns]
-1.1 -2.8 88 -5 -5 976.0
штиль 0 10 км слабый снег, дымка 10/10 900 m
[Ns]
-1.1 -2.8 88 -2 -2 976.3
штиль 0 14 км 10/10 930 м -1.1 -2.8 88 -2 -2 1012.0 976.6
СЗ 2 14 км слабый снег 10/10 780 m
[Ns]
-1.1 -4.4 78 -5 -5 1012.6 977.3
штиль 0 11 км слабый снег 10/10 1410 m
[Ns]
-1.7 -3.9 85 -3 -3 1013.1 977.6
штиль 0 16 км 10/10 1410 м -3.9 -5.0 92 -5 -5 1013.4 977.9 -3.9
штиль 0 16 км 10/10 1290 м -5.0 -5.0 100 -6 -6 1014.0 978.3
Местоположение метеостанции Elmira / Corning Regional Airport: широта 42.1564 долгота -76.9028 высота над уровнем моря 291 м.
В архиве по умолчанию представлена погода в Эльмире за последние 1-2 суток. Обновление информации о фактической погоде в базе происходит ежечасно! Архивные данные за месяц целиком и за предыдущие месяцы Вы можете получить, выбрав интересующий диапазон дат из раскрывающегося списка и нажав кнопку "Ввод!".
Внимание! Архив погоды МЕТАР в базе сайта по станциям, не включенным в климатический монитор, хранится не более 60 дней. Нет смысла пытаться выбрать более раннюю дату.
*Определитесь, кто Вы:
Внимание! Время в таблицах - местное (без учета летнего времени). Для получения всемирного времени необходимо вычесть поправку, которая равна -5 ч.
Смотрите также архив погоды в соседних городах и на ближайших метеорологических станциях:
Партнеры нашего сайта:      
Пояснения к столбцам:
  • Ветер - указаны скорость ветра в м/с - средняя за 10 мин, порывы в срок и между сроками (в фигурных скобках) и направление, откуда дует ветер: С - северный,
  • СВ - северо-восточный, В - восточный, ЮВ - юго-восточный, Ю - южный, ЮЗ - юго-западный, З - западный, СЗ - северо-западный.
  • Видимость - горизонтальная дальность видимости в метрах или километрах. При видимости от 1 до 10 км при отсутствии осадков обычно наблюдается дымка, при ухудшении видимости до 1 км и менее - туман. В сухую погоду видимость может ухудшаться дымом, пылью или мглою.
  • Явления - указаны атмосферные явления, наблюдавшиеся в срок или в последний час перед сроком; фигурными скобками обозначены явления, наблюдавшиеся между сроками (за 1-3 часа до срока); квадратными скобками обозначены град или гололедные отложения с указанием их диаметра в мм.
  • Облачность - указаны через наклонную черту общая и нижняя облачность в баллах и высота нижней границы облаков в метрах; квадратными скобками обозначены формы облаков: Ci - перистые, Cs - перисто-слоистые, Cc - перисто-кучевые, Ac - высококучевые, As - высокослоистые, Sc - слоисто-кучевые, Ns - слоисто-дождевые, Cu - кучевые, Cb - кучево-дождевые. Подробнее классификацию облаков см. в Атласе облаков (PDF).
  • T - Температура воздуха - температура, измеренная на высоте 2 м над землей.
  • Td - Температура точки росы - температура, при понижении до которой содержащийся в воздухе водяной пар достигнет насыщения.
  • f - Относительная влажность воздуха - влажноcть воздуха, измеренная на высоте 2 м над землей.
  • Te - Эффективная температура - температура, которую ощущает одетый по сезону человек в тени. Характеристика душности погоды. При расчете учитывается влияние влажности воздуха и скорости ветра на теплоощущения человека.
  • Tes - Эффективная температура на солнце - температура, которую ощущает человек, с поправкой на солнечный нагрев. Характеристика знойности погоды. Зависит от высоты солнца над горизонтом, облачности и скорости ветра. Ночью, в пасмурную погоду, а также при ветре 12 м/с и более поправка равна нулю.
  • P - Атмосферное давление - приведенное к уровню моря атмосферное давление.
  • Po - Атмосферное давление - измеренное на уровне метеостанции атмосферное давление.
  • Tmin - Минимальная температура - минимум температуры воздуха на высоте 2 м над землей.
  • Tmax - Максимальная температура - максимум температуры воздуха на высоте 2 м над землей.
  • R - Количество осадков - Количество выпавших осадков за период времени, мм. При наведении курсора мыши на число - период времени, за который выпало указанное количество осадков.
  • R24 - Количество осадков - Количество выпавших осадков за 24 часа, мм.
  • S - Снежный покров - Высота снежного покрова, см. При наведении курсора мыши на число - состояние снежного покрова и степень покрытия местности в баллах.